Home > Weather > Paris > Past weeks

Flag for France Past Weather in Paris, Île-de-France, France — Yesterday and Last 2 Weeks

Now
68 °F

More clouds than sun.


Feels Like: 68 °F
Forecast: 56 / 74 °F
Wind: 8 mph from North

Location: Villacoublay

Current Time: Jul 25, 2016 at 8:25:04 AM

Latest Report: Jul 25, 2016 at 8:00 AM


Visibility: N/A

Pressure: 30.12 "Hg

Humidity: 78%

Dew Point: 61 °F

Location of ParisLocation

Past Weather in Paris — Graph

°F

Paris Temperature Yesterday

Maximum temperature yesterday: 81 °F (at 5:00 PM)
Minimum temperature yesterday: 59 °F (at 6:30 AM)
Average temperature yesterday: 71 °F

High & Low Weather Summary for the Past Weeks

 TemperatureHumidityPressure
High93 °F (Jul 19, 4:30 PM)100% (Jul 13, 12:00 AM)30.39 "Hg (Jul 13, 12:00 AM)
Low52 °F (Jul 13, 6:30 AM)28% (Jul 19, 4:30 PM)29.86 "Hg (Jul 10, 6:00 PM)
Average69 °F64%30.10 "Hg
* Reported Jul 10 7:00 AM — Jul 25 7:00 AM, Paris, Weather by CustomWeather, © 2016

Note: Actual official high and low records may vary slightly from our data, if they occured in-between our weather recording intervals... More about our weather records

Advertising

Paris Weather History for the Previous 24 Hours

Scroll right to see more
 ConditionsComfort  
Time TempWeatherWind HumidityBarometerVisibility
7:00 AM
Mon, Jul 25
68 °FMostly cloudy.6 mph78%30.12 "HgN/A
6:30 AM68 °FClear.7 mph73%30.12 "Hg10 mi
6:00 AM68 °FClear.5 mph73%30.12 "Hg10 mi
5:30 AM68 °FClear.3 mph73%30.12 "Hg10 mi
5:00 AM68 °FClear.3 mph78%30.12 "Hg10 mi
4:30 AM70 °FClear.5 mph73%30.12 "Hg10 mi
4:00 AM70 °FClear.2 mph69%30.12 "Hg10 mi
3:30 AM70 °FClear.3 mph69%30.12 "Hg10 mi
3:00 AM70 °FClear.3 mph69%30.12 "Hg10 mi
2:30 AM70 °FClear.6 mph69%30.15 "Hg10 mi
2:00 AM72 °FClear.5 mph65%30.15 "Hg10 mi
1:30 AM72 °FClear.5 mph65%30.15 "Hg10 mi
1:00 AM72 °FClear.2 mph65%30.15 "Hg10 mi
12:30 AM73 °FClear.3 mph61%30.15 "Hg10 mi
12:00 AM73 °FPassing clouds.5 mph61%30.15 "HgN/A
11:30 PM
Sun, Jul 24
73 °FClear.6 mph61%30.15 "Hg10 mi
11:00 PM73 °FClear.6 mph61%30.15 "Hg10 mi
10:30 PM73 °FSunny.6 mph61%30.12 "Hg10 mi
10:00 PM75 °FSunny.6 mph57%30.12 "Hg10 mi
9:30 PM75 °FPassing clouds.6 mph54%30.12 "HgN/A
9:00 PM77 °FSunny.8 mph51%30.12 "Hg10 mi
8:30 PM77 °FSunny.3 mph51%30.12 "Hg10 mi
8:00 PM79 °FPassing clouds.8 mph45%30.12 "HgN/A
7:30 PM81 °FPassing clouds.7 mph45%30.12 "HgN/A
7:00 PM79 °FPassing clouds.9 mph48%30.09 "HgN/A
6:30 PM79 °FPassing clouds.6 mph48%30.12 "HgN/A
6:00 PM79 °FPassing clouds.7 mph48%30.12 "HgN/A
5:30 PM79 °FPassing clouds.5 mph51%30.12 "HgN/A
5:00 PM81 °FPassing clouds.8 mph45%30.12 "HgN/A
4:30 PM79 °FPassing clouds.9 mph48%30.12 "HgN/A
4:00 PM79 °FPassing clouds.8 mph45%30.12 "HgN/A
3:30 PM79 °FPassing clouds.8 mph45%30.12 "HgN/A
3:00 PM79 °FPassing clouds.9 mph45%30.15 "HgN/A
2:30 PM79 °FPassing clouds.10 mph45%30.15 "HgN/A
2:00 PM79 °FPartly sunny.9 mph48%30.15 "HgN/A
1:30 PM77 °FScattered clouds.9 mph54%30.15 "HgN/A
1:00 PM77 °FScattered clouds.10 mph51%30.15 "HgN/A
12:30 PM75 °FPassing clouds.10 mph57%30.15 "HgN/A
12:00 PM75 °FPassing clouds.8 mph57%30.18 "HgN/A
11:30 AM73 °FPassing clouds.8 mph61%30.18 "HgN/A
11:00 AM72 °FPassing clouds.6 mph61%30.18 "HgN/A
10:30 AM70 °FSunny.3 mph64%30.18 "Hg10 mi
10:00 AM70 °FSunny.No wind64%30.18 "Hg10 mi
9:30 AM68 °FPassing clouds.3 mph64%30.18 "HgN/A
9:00 AM66 °FSunny.2 mph73%30.18 "Hg10 mi
8:30 AM64 °FSunny.2 mph78%30.18 "Hg10 mi
8:00 AM63 °FSunny.3 mph77%30.15 "Hg10 mi
Weather by CustomWeather, © 2016

See weather overviewHow to use our weather pages